DW3039 Karjalohja FI current weather conditions

sailwx.info

Wind from 320 at 2 knots gusting 7

Air temperature 14.4° C
Dewpoint 12.5° C

Last reported at 2017-May-29 03:02 UTC.
Time now 2017-May-29 04:01 UTC

Location: N 60°16' E 023°41'.
View on Google Maps.

See reports from other nearby stations

  
Tides and Currents Weather Stations Pressure Air Temp Water Temp Dewpoint Dewpoint Depression Visibility Wind Speed Wind Dir Waves Ship Positions
date/time (UTC)wind fromknots sea level pressurealtimeterstation pressurevisibilityair tempwater tempwave heightnotes
2017-May-29 03:02 320 2 gusting 7 14.4
2017-May-29 02:52 296 0 gusting 5 13.9
2017-May-29 02:42 254 0 gusting 3 13.9
2017-May-29 02:32 330 0 gusting 5 13.9
2017-May-29 02:22 325 0 gusting 4 13.9
2017-May-29 02:12 251 13.9
2017-May-29 02:02 214 13.9
2017-May-29 01:52 214 13.9
2017-May-29 01:30 214 13.9
2017-May-29 01:20 196 13.9
2017-May-29 01:10 196 13.9
2017-May-29 01:00 196 13.9
2017-May-29 00:49 196 13.9
2017-May-29 00:39 196 13.9
2017-May-29 00:29 196 13.9
2017-May-29 00:19 196 13.9
2017-May-29 00:09 199 2 gusting 6 13.9
2017-May-28 23:59 161 0 gusting 4 13.9
2017-May-28 23:49 158 13.9
2017-May-28 23:39 158 13.9
2017-May-28 23:29 158 13.9
2017-May-28 23:19 158 13.9
2017-May-28 23:09 158 14.4
2017-May-28 22:59 158 14.4
2017-May-28 22:49 158 14.4
2017-May-28 22:39 158 14.4
2017-May-28 22:29 158 14.4
2017-May-28 22:19 158 14.4
2017-May-28 22:09 158 14.4
2017-May-28 21:59 158 15.0
2017-May-28 21:49 158 15.0
2017-May-28 21:39 203 2 gusting 6 15.0
2017-May-28 21:29 219 0 gusting 4 15.0
2017-May-28 21:19 225 0 gusting 5 15.0
2017-May-28 21:09 248 2 gusting 6 15.6
2017-May-28 20:59 226 4 gusting 7 15.6
2017-May-28 20:48 217 5 gusting 7 15.6
2017-May-28 20:38 222 3 gusting 7 15.6
2017-May-28 20:28 194 2 gusting 11 15.6
2017-May-28 20:18 218 5 gusting 10 15.6
2017-May-28 20:08 217 1 gusting 6 15.6
2017-May-28 19:58 201 2 gusting 8 16.1
2017-May-28 19:48 218 3 gusting 6 16.1
2017-May-28 19:38 192 0 gusting 4 16.1
2017-May-28 19:26 195 1 gusting 7 16.1
2017-May-28 19:16 190 1 gusting 6 16.7
2017-May-28 19:06 210 2 gusting 5 16.7
2017-May-28 18:56 213 2 gusting 7 16.7
2017-May-28 18:46 196 2 gusting 6 16.7
2017-May-28 18:36 213 3 gusting 6 17.2
2017-May-28 18:26 215 3 gusting 6 17.2
2017-May-28 18:16 217 4 gusting 9 17.2
2017-May-28 18:06 213 4 gusting 7 17.2
2017-May-28 17:56 212 3 gusting 8 17.8
2017-May-28 17:46 195 3 gusting 10 17.8
2017-May-28 17:36 204 3 gusting 12 17.8
2017-May-28 17:26 212 5 gusting 10 18.3
2017-May-28 17:05 215 7 gusting 16 18.9
2017-May-28 16:31 217 6 gusting 14 18.9
2017-May-28 16:09 213 4 gusting 9 18.9
2017-May-28 15:59 217 5 gusting 8 18.9
2017-May-28 15:49 214 5 gusting 13 19.4
2017-May-28 15:39 226 5 gusting 16 19.4
2017-May-28 15:29 218 6 gusting 13 19.4
2017-May-28 15:19 217 6 gusting 13 20.0
2017-May-28 14:35 216 6 gusting 15 20.6
2017-May-28 14:25 208 3 gusting 18 20.6
2017-May-28 14:15 222 4 gusting 13 20.6
2017-May-28 14:05 227 4 gusting 16 20.6
2017-May-28 13:55 211 2 gusting 15 20.6
2017-May-28 13:45 209 6 gusting 16 20.6
2017-May-28 13:34 202 7 gusting 14 20.6
2017-May-28 13:24 232 6 gusting 14 20.6
2017-May-28 13:14 209 7 gusting 18 20.6
2017-May-28 13:04 195 6 gusting 13 20.0
2017-May-28 12:54 187 4 gusting 16 20.0
2017-May-28 12:44 196 6 gusting 13 20.0
2017-May-28 12:23 211 5 gusting 13 20.0
2017-May-28 12:13 221 6 gusting 10 20.0
2017-May-28 11:51 155 3 gusting 6 19.4
2017-May-28 11:41 203 5 gusting 10 19.4
2017-May-28 11:07 140 3 gusting 10 19.4
2017-May-28 10:57 190 6 gusting 8 18.9
2017-May-28 10:47 162 3 gusting 8 19.4
2017-May-28 10:26 179 3 gusting 11 18.9
2017-May-28 10:16 124 3 gusting 8 18.9
2017-May-28 10:06 141 3 gusting 9 18.9
2017-May-28 09:56 122 4 gusting 13 18.9
2017-May-28 09:34 148 1 gusting 6 18.3
2017-May-28 09:24 141 1 gusting 9 17.8
2017-May-28 09:14 132 2 gusting 8 17.8
2017-May-28 09:03 118 1 gusting 8 17.8
2017-May-28 08:53 161 3 gusting 8 17.8
2017-May-28 08:43 149 3 gusting 10 17.2
2017-May-28 08:33 140 3 gusting 8 17.2
2017-May-28 08:23 138 4 gusting 7 16.7
2017-May-28 08:13 148 1 gusting 9 16.1
2017-May-28 08:03 124 1 gusting 7 16.1
2017-May-28 07:42 135 1 gusting 7 15.0
2017-May-28 07:32 139 1 gusting 5 15.0
2017-May-28 07:21 112 1 gusting 5 15.0
2017-May-28 07:11 311 15.0
2017-May-28 07:01 117 2 gusting 6 15.0
2017-May-28 06:51 125 3 gusting 6 14.4
2017-May-28 06:41 141 3 gusting 6 13.9
2017-May-28 06:19 140 2 gusting 6 12.8
2017-May-28 06:09 126 1 gusting 6 12.8
2017-May-28 05:48 105 1 gusting 5 12.2
2017-May-28 05:38 118 1 gusting 6 12.2
2017-May-28 05:28 151 11.7
2017-May-28 05:18 188 11.7
2017-May-28 05:08 127 1 gusting 5 11.7
2017-May-28 04:58 160 1 gusting 6 11.1
2017-May-28 04:48 138 11.1
2017-May-28 04:38 141 1 gusting 6 11.1
2017-May-28 04:28 132 1 gusting 4 11.1
2017-May-28 04:18 128 11.1
2017-May-28 04:08 166 11.1
2017-May-28 03:58 131 11.1
2017-May-28 03:47 004 10.6
2017-May-28 03:37 004 10.6
2017-May-28 03:27 004 10.6
2017-May-28 03:17 004 10.6
2017-May-28 03:07 004 10.6
2017-May-28 02:57 004 10.6
2017-May-28 02:47 004 10.6
2017-May-28 02:14 004 10.0
2017-May-28 02:04 290 10.0
2017-May-28 01:54 290 10.0
2017-May-28 01:44 313 10.0
2017-May-28 01:34 313 10.0
2017-May-28 01:24 313 10.0
2017-May-28 01:14 313 10.0
2017-May-28 01:04 313 10.0
2017-May-28 00:54 335 0 gusting 2 10.0
2017-May-28 00:44 333 10.0
2017-May-28 00:34 258 10.0
2017-May-28 00:24 236 1 gusting 6 10.0
2017-May-28 00:14 294 1 gusting 5 10.0
2017-May-28 00:04 230 1 gusting 5 10.0
2017-May-27 23:54 229 0 gusting 5 10.0
2017-May-27 23:44 228 10.0
2017-May-27 23:34 254 10.0
2017-May-27 23:23 254 10.0
2017-May-27 23:13 253 0 gusting 6 10.0
2017-May-27 23:03 244 10.0
2017-May-27 22:53 244 10.0
2017-May-27 22:43 239 1 gusting 6 10.0
2017-May-27 22:33 238 1 gusting 5 10.0
2017-May-27 22:23 236 0 gusting 3 10.0
2017-May-27 22:13 213 10.0
2017-May-27 22:03 213 10.0
2017-May-27 21:53 213 10.0
2017-May-27 21:43 213 10.0
2017-May-27 21:33 213 10.0
2017-May-27 21:23 213 10.0
2017-May-27 21:13 213 10.6
2017-May-27 21:03 213 10.6
2017-May-27 20:53 213 10.6
2017-May-27 20:43 213 11.1
2017-May-27 20:33 213 11.1
2017-May-27 20:23 213 11.1
2017-May-27 20:13 213 11.1
2017-May-27 20:03 213 11.1
2017-May-27 19:53 213 11.7
2017-May-27 19:43 213 11.7
2017-May-27 19:33 213 11.7
2017-May-27 19:22 213 11.7
2017-May-27 19:12 213 12.2
2017-May-27 19:02 213 12.2
2017-May-27 18:52 213 12.8
2017-May-27 18:42 213 12.8
2017-May-27 18:32 213 13.3
2017-May-27 18:22 213 13.3
2017-May-27 18:12 177 13.3
2017-May-27 18:02 125 13.3
2017-May-27 17:52 172 13.3
2017-May-27 17:42 127 13.3
2017-May-27 17:20 152 0 gusting 0 13.3
2017-May-27 17:10 114 13.3
2017-May-27 17:00 114 13.3
2017-May-27 16:50 156 13.3
2017-May-27 16:40 077 13.9
2017-May-27 16:30 153 0 gusting 4 13.9
2017-May-27 16:20 123 0 gusting 4 13.9
2017-May-27 16:10 095 13.3
2017-May-27 16:00 128 13.3
2017-May-27 15:39 180 13.3
2017-May-27 15:17 131 13.9
2017-May-27 15:07 221 13.9
2017-May-27 14:45 131 1 gusting 5 13.3
2017-May-27 14:35 133 2 gusting 5 13.3
2017-May-27 14:15 119 13.3
2017-May-27 14:05 169 13.3
2017-May-27 13:43 119 0 gusting 3 13.9
2017-May-27 13:33 151 13.9
2017-May-27 13:23 123 1 gusting 5 13.9
2017-May-27 13:13 141 13.9
2017-May-27 13:03 170 1 gusting 5 13.9
2017-May-27 12:41 128 1 gusting 4 13.9
2017-May-27 12:31 132 1 gusting 6 13.9
2017-May-27 12:09 162 1 gusting 6 13.9
2017-May-27 11:59 120 0 gusting 4 13.9
2017-May-27 11:37 203 13.9
2017-May-27 11:27 141 0 gusting 6 13.9
2017-May-27 11:17 136 1 gusting 4 13.9
2017-May-27 10:56 135 0 gusting 6 13.9
2017-May-27 10:46 136 0 gusting 3 14.4
2017-May-27 10:36 123 1 gusting 6 13.9
2017-May-27 10:26 166 0 gusting 8 13.9
2017-May-27 10:16 140 2 gusting 7 14.4
2017-May-27 10:06 140 0 gusting 4 14.4
2017-May-27 09:56 135 2 gusting 7 15.0
2017-May-27 09:46 171 0 gusting 7 15.0
2017-May-27 09:36 149 1 gusting 6 15.6
2017-May-27 09:14 126 0 gusting 5 15.0
2017-May-27 09:04 117 15.0
2017-May-27 08:54 224 14.4
2017-May-27 08:44 059 14.4
2017-May-27 08:34 029 2 gusting 6 13.9
2017-May-27 08:24 028 13.9
2017-May-27 08:14 002 0 gusting 5 13.9
2017-May-27 08:04 034 3 gusting 6 13.3
2017-May-27 07:54 027 3 gusting 6 13.3
2017-May-27 07:44 192 1 gusting 4 13.3
2017-May-27 07:34 106 12.8
2017-May-27 07:24 058 1 gusting 4 12.8
2017-May-27 07:14 124 1 gusting 4 12.2
2017-May-27 07:04 007 0 gusting 5 12.2
2017-May-27 06:54 040 0 gusting 3 11.7
2017-May-27 06:44 031 1 gusting 4 11.7
2017-May-27 06:23 022 11.7
2017-May-27 06:13 032 1 gusting 4 11.7
2017-May-27 06:03 044 2 gusting 4 11.7
2017-May-27 05:53 357 11.7
2017-May-27 05:43 107 11.7
2017-May-27 05:21 146 10.6
2017-May-27 05:11 011 10.6
2017-May-27 05:01 038 0 gusting 4 10.6
2017-May-27 04:51 025 10.0
2017-May-27 04:41 037 1 gusting 6 10.0
2017-May-27 04:31 066 10.0
2017-May-27 04:20 038 2 gusting 5 10.0
2017-May-27 04:10 337 0 gusting 2 10.0
2017-May-27 04:00 018 0 gusting 4 9.4